Location: Newark
(9.1700°S, 36.6800°W)
Time: 02:23:20
(UTC+00:00)

Hubble Space Telescope - Visible Passes

Search period start: 21 October 2019 00:00
Search period end: 31 October 2019 00:00
Orbit: 536 x 540 km, 28.5° (Epoch: 20 October)

Date Brightness Start Highest point End Pass type
(mag) Time Alt. Az. Time Alt. Az. Time Alt. Az.
21 Oct 2.9 05:56:27 26° E 05:56:27 26° E 05:58:28 10° E visible
21 Oct 1.8 07:32:03 10° W 07:35:37 28° NNW 07:39:10 10° NNE visible
21 Oct 1.8 21:10:04 10° W 21:14:02 43° SSW 21:18:00 10° SE visible
22 Oct 3.5 05:47:20 15° ENE 05:47:20 15° ENE 05:48:02 10° ENE visible
22 Oct 2.3 07:22:43 13° WNW 07:25:02 20° NNW 07:28:07 10° NNE visible
22 Oct 2.4 20:59:45 10° W 21:03:30 32° SSW 21:07:15 10° SE visible
23 Oct 2.6 07:13:36 14° NW 07:14:28 15° NNW 07:16:48 10° N visible
23 Oct 2.9 20:49:33 10° W 20:53:00 24° SSW 20:56:26 10° SSE visible
24 Oct 3.0 07:04:27 10° NNW 07:04:27 10° NNW 07:04:37 10° NNW visible
24 Oct 3.2 20:39:29 10° WSW 20:42:30 19° SSW 20:45:32 10° SSE visible
